This is the latest recevied weather packets stored in our database for station/object N1TKS. If no packets are shown the sender has not sent any weather packets the latest 1 day(s).
| Time | Temp. | Humidity | Pressure | Rain* | Wind** | Luminosity | Snow |
|---|---|---|---|---|---|---|---|
| 1778103117 | 15.56° C | 89% | 1007.2 hPa | 0 mm | - | - | - |
| 1778101588 | 15° C | 88% | 1007.1 hPa | 0.25 mm | - | - | - |
| 1778100474 | 15° C | 89% | 1006.9 hPa | 0.25 mm | - | - | - |
| 1778100414 | 15° C | 89% | 1006.9 hPa | 0.25 mm | - | - | - |
| 1778099815 | 15° C | 88% | 1007.1 hPa | 0.25 mm | - | - | - |
| 1778097415 | 15° C | 88% | 1007.5 hPa | 0.25 mm | - | - | - |
| 1778096814 | 15° C | 88% | 1007.7 hPa | 0.25 mm | - | - | - |
| 1778096546 | 15° C | 88% | 1007.8 hPa | 0.25 mm | - | - | - |
| 1778095616 | 15° C | 87% | 1008 hPa | 0 mm | - | - | - |
| 1778094114 | 15.56° C | 87% | 1007.8 hPa | 0 mm | - | - | - |
| 1778093903 | 15.56° C | 87% | 1008.3 hPa | 0.51 mm | - | - | - |
| 1778093218 | 15.56° C | 87% | 1008 hPa | 0.25 mm | - | - | - |
| 1778092314 | 15.56° C | 87% | 1008.3 hPa | 0.51 mm | - | - | - |
| 1778091714 | 15.56° C | 87% | 1008.3 hPa | 0.51 mm | - | - | - |
| 1778091114 | 15.56° C | 87% | 1008.5 hPa | 0.51 mm | - | - | - |
| 1778090260 | 15.56° C | 87% | 1008.6 hPa | 0.51 mm | - | - | - |
| 1778090215 | 15.56° C | 87% | 1008.6 hPa | 0.51 mm | - | - | - |
| 1778089613 | 15.56° C | 86% | 1008.5 hPa | 0.51 mm | - | - | - |
| 1778089317 | 15.56° C | 86% | 1008.4 hPa | 0.76 mm | - | - | - |
| 1778089013 | 15.56° C | 86% | 1008.4 hPa | 0.51 mm | - | - | - |
| 1778088115 | 15.56° C | 85% | 1008.6 hPa | 0.51 mm | - | - | - |
| 1778087902 | 15.56° C | 85% | 1008.9 hPa | 0.51 mm | - | - | - |
| 1778083313 | 17.78° C | 79% | 1009.6 hPa | 0 mm | - | - | - |
| 1778083018 | 17.78° C | 79% | 1009.7 hPa | 0 mm | - | - | - |
| 1778082413 | 17.78° C | 79% | 1009.7 hPa | 0 mm | - | - | - |
* Rain latest hour (hover to see other rain measurements)
** Current wind speed in m/s (hover to see current wind gust speed)